WZZ5464 EDLW-EGGW

Flight info

Callsign WZZ5464
Flight time 1h 4m
Altitude 32000
Route DOMEG2U DOMEG N853 HMM L602 FLEVO L980 IDRID M40 RINIS
Aircraft A21N/M-SDE2E3FGHIRWXY/LB1

Departure

Time 2026-05-04 20:50
Airport Dortmund Airport (EDLW)

Arrival

Time 2026-05-04 21:54
Airport London Luton Airport (EGGW)
Time Latitude Longitude Altitude Speed Heading
2026-05-04 20:21 51.51658 7.61524 446 ft 0 kts 330°
2026-05-04 20:45 51.51666 7.61517 442 ft 3 kts 330°
2026-05-04 20:45 51.51697 7.61494 443 ft 7 kts 353°
2026-05-04 20:45 51.51742 7.61526 441 ft 8 kts 43°
2026-05-04 20:46 51.51774 7.61600 435 ft 5 kts 61°
2026-05-04 20:46 51.51795 7.61660 438 ft 7 kts 61°
2026-05-04 20:46 51.51818 7.61726 427 ft 7 kts 60°
2026-05-04 20:46 51.51846 7.61805 428 ft 10 kts 60°
2026-05-04 20:47 51.51883 7.61911 433 ft 12 kts 60°
2026-05-04 20:47 51.51929 7.62039 425 ft 14 kts 60°
2026-05-04 20:47 51.51980 7.62185 422 ft 15 kts 60°
2026-05-04 20:47 51.52034 7.62340 415 ft 16 kts 60°
2026-05-04 20:48 51.52092 7.62503 416 ft 17 kts 60°
2026-05-04 20:48 51.52152 7.62674 413 ft 16 kts 60°
2026-05-04 20:48 51.52214 7.62777 411 ft 13 kts 11°
2026-05-04 20:48 51.52306 7.62723 414 ft 14 kts 330°
2026-05-04 20:49 51.52330 7.62641 415 ft 11 kts 251°
2026-05-04 20:49 51.52198 7.62260 412 ft 77 kts 239°
2026-05-04 20:49 51.51809 7.61158 421 ft 148 kts 240°
2026-05-04 20:49 51.51295 7.59660 1020 ft 152 kts 241°
2026-05-04 20:50 51.50789 7.58120 1795 ft 164 kts 239°
2026-05-04 20:50 51.50191 7.56468 2257 ft 182 kts 238°
2026-05-04 20:50 51.49528 7.54622 2758 ft 199 kts 239°
2026-05-04 20:50 51.48810 7.52624 3297 ft 216 kts 239°
2026-05-04 20:51 51.48013 7.50409 3731 ft 241 kts 239°
2026-05-04 20:51 51.47202 7.47955 4415 ft 255 kts 251°
2026-05-04 20:51 51.47101 7.45114 5270 ft 262 kts 279°
2026-05-04 20:51 51.47828 7.42390 6130 ft 272 kts 299°
2026-05-04 20:52 51.48608 7.39655 6653 ft 269 kts 279°
2026-05-04 20:52 51.48912 7.36691 6882 ft 270 kts 275°
2026-05-04 20:52 51.49191 7.33704 6960 ft 271 kts 276°
2026-05-04 20:52 51.49511 7.30725 6970 ft 271 kts 277°
2026-05-04 20:53 51.49863 7.27754 6975 ft 271 kts 277°
2026-05-04 20:53 51.50233 7.24781 6973 ft 272 kts 278°
2026-05-04 20:53 51.50612 7.21820 7272 ft 272 kts 278°
2026-05-04 20:53 51.51002 7.18789 8015 ft 281 kts 279°
2026-05-04 20:54 51.51405 7.15694 8916 ft 286 kts 279°
2026-05-04 20:54 51.51815 7.12551 9852 ft 289 kts 279°
2026-05-04 20:54 51.52233 7.09335 10465 ft 303 kts 279°
2026-05-04 20:54 51.52678 7.05915 10877 ft 322 kts 279°
2026-05-04 20:55 51.53144 7.02346 11485 ft 330 kts 279°
2026-05-04 20:55 51.53618 6.98713 12221 ft 333 kts 279°
2026-05-04 20:55 51.54094 6.95055 12959 ft 336 kts 279°
2026-05-04 20:55 51.54572 6.91362 13700 ft 340 kts 279°
2026-05-04 20:56 51.55055 6.87615 14384 ft 345 kts 279°
2026-05-04 20:56 51.55543 6.83820 15094 ft 348 kts 279°
2026-05-04 20:56 51.56035 6.79984 15822 ft 352 kts 279°
2026-05-04 20:56 51.56531 6.76115 16558 ft 356 kts 279°
2026-05-04 20:57 51.57031 6.72195 17271 ft 360 kts 279°
2026-05-04 20:57 51.57536 6.68241 17956 ft 363 kts 279°
2026-05-04 20:57 51.58043 6.64246 18563 ft 366 kts 279°
2026-05-04 20:57 51.58551 6.60229 19100 ft 368 kts 279°
2026-05-04 20:58 51.59059 6.56186 19599 ft 370 kts 279°
2026-05-04 20:58 51.59568 6.52122 20068 ft 372 kts 278°
2026-05-04 20:58 51.60080 6.48024 20510 ft 375 kts 278°
2026-05-04 20:58 51.60593 6.43915 20951 ft 377 kts 278°
2026-05-04 20:59 51.61111 6.39777 21356 ft 379 kts 278°
2026-05-04 20:59 51.61633 6.35604 21730 ft 381 kts 278°
2026-05-04 20:59 51.62155 6.31404 22079 ft 384 kts 278°
2026-05-04 20:59 51.62674 6.27186 22417 ft 386 kts 278°
2026-05-04 21:00 51.63195 6.22944 22724 ft 387 kts 278°
2026-05-04 21:00 51.63720 6.18680 23023 ft 389 kts 278°
2026-05-04 21:00 51.64244 6.14404 23291 ft 390 kts 278°
2026-05-04 21:00 51.64768 6.10112 23532 ft 391 kts 278°
2026-05-04 21:01 51.65292 6.05811 23717 ft 392 kts 278°
2026-05-04 21:01 51.65812 6.01494 23854 ft 394 kts 278°
2026-05-04 21:01 51.66335 5.97154 23987 ft 395 kts 278°
2026-05-04 21:01 51.66858 5.92810 24099 ft 396 kts 278°
2026-05-04 21:02 51.67384 5.88443 24208 ft 397 kts 278°
2026-05-04 21:02 51.67729 5.85560 24313 ft 398 kts 278°
2026-05-04 21:02 51.68252 5.81169 24443 ft 400 kts 278°
2026-05-04 21:02 51.68774 5.76756 24515 ft 403 kts 279°
2026-05-04 21:03 51.69302 5.72307 24586 ft 405 kts 279°
2026-05-04 21:03 51.69830 5.67842 24690 ft 406 kts 279°
2026-05-04 21:03 51.70356 5.63371 24778 ft 407 kts 279°
2026-05-04 21:03 51.70883 5.58884 24821 ft 408 kts 279°
2026-05-04 21:04 51.71409 5.54400 24857 ft 406 kts 279°
2026-05-04 21:04 51.71931 5.49934 24825 ft 404 kts 279°
2026-05-04 21:04 51.72449 5.45492 24771 ft 403 kts 279°
2026-05-04 21:04 51.72962 5.41064 24712 ft 403 kts 278°
2026-05-04 21:05 51.73476 5.36582 25035 ft 408 kts 278°
2026-05-04 21:05 51.73991 5.32092 25535 ft 408 kts 278°
2026-05-04 21:05 51.74506 5.27575 26004 ft 409 kts 278°
2026-05-04 21:05 51.75022 5.23051 26447 ft 411 kts 278°
2026-05-04 21:06 51.75541 5.18498 26865 ft 413 kts 278°
2026-05-04 21:06 51.76057 5.13929 27272 ft 415 kts 278°
2026-05-04 21:06 51.76575 5.09331 27679 ft 417 kts 278°
2026-05-04 21:06 51.77096 5.04712 28079 ft 419 kts 278°
2026-05-04 21:07 51.77617 5.00074 28458 ft 421 kts 278°
2026-05-04 21:07 51.78137 4.95403 28839 ft 423 kts 278°
2026-05-04 21:07 51.78657 4.90716 29202 ft 425 kts 278°
2026-05-04 21:07 51.79177 4.86001 29559 ft 428 kts 278°
2026-05-04 21:08 51.79700 4.81257 29898 ft 430 kts 278°
2026-05-04 21:08 51.80225 4.76488 30198 ft 432 kts 278°
2026-05-04 21:08 51.80750 4.71703 30513 ft 433 kts 278°
2026-05-04 21:08 51.81271 4.66922 30944 ft 431 kts 278°
2026-05-04 21:09 51.81788 4.62168 31357 ft 429 kts 277°
2026-05-04 21:09 51.82300 4.57430 31758 ft 427 kts 277°
2026-05-04 21:09 51.82808 4.52701 31978 ft 426 kts 277°
2026-05-04 21:09 51.83312 4.47991 32009 ft 425 kts 277°
2026-05-04 21:10 51.84318 4.38582 31997 ft 425 kts 277°
2026-05-04 21:10 51.85315 4.29163 31991 ft 425 kts 277°
2026-05-04 21:11 51.86304 4.19748 31991 ft 425 kts 277°
2026-05-04 21:11 51.87286 4.10319 31992 ft 425 kts 277°
2026-05-04 21:12 51.88259 4.00895 31993 ft 425 kts 277°
2026-05-04 21:12 51.89222 3.91464 31989 ft 425 kts 277°
2026-05-04 21:13 51.90177 3.82041 31996 ft 423 kts 277°
2026-05-04 21:13 51.91122 3.72648 31678 ft 423 kts 277°
2026-05-04 21:14 51.91592 3.67951 31340 ft 422 kts 277°
2026-05-04 21:14 51.92062 3.63266 30973 ft 421 kts 276°
2026-05-04 21:14 51.92528 3.58591 30600 ft 420 kts 276°
2026-05-04 21:14 51.92988 3.53936 30228 ft 418 kts 276°
2026-05-04 21:15 51.93439 3.49357 29834 ft 416 kts 276°
2026-05-04 21:15 51.93891 3.44747 29402 ft 412 kts 276°
2026-05-04 21:15 51.94337 3.40188 28966 ft 406 kts 276°
2026-05-04 21:15 51.94772 3.35715 28559 ft 397 kts 276°
2026-05-04 21:16 51.95194 3.31344 28166 ft 389 kts 276°
2026-05-04 21:16 51.95613 3.27006 27996 ft 382 kts 276°
2026-05-04 21:16 51.96016 3.22803 27984 ft 382 kts 276°
2026-05-04 21:16 51.96401 3.18552 27997 ft 381 kts 273°
2026-05-04 21:17 51.96139 3.09984 28028 ft 383 kts 261°
2026-05-04 21:17 51.95544 3.01414 28019 ft 383 kts 261°
2026-05-04 21:18 51.95256 2.97134 27857 ft 379 kts 261°
2026-05-04 21:18 51.94978 2.92952 27594 ft 367 kts 261°
2026-05-04 21:18 51.94709 2.88880 27341 ft 360 kts 262°
2026-05-04 21:18 51.94443 2.84863 27071 ft 359 kts 262°
2026-05-04 21:19 51.94174 2.80851 26817 ft 358 kts 262°
2026-05-04 21:19 51.93905 2.76849 26560 ft 356 kts 262°
2026-05-04 21:19 51.93637 2.72878 26307 ft 355 kts 262°
2026-05-04 21:19 51.93368 2.68928 26054 ft 351 kts 262°
2026-05-04 21:20 51.93100 2.64994 25788 ft 351 kts 262°
2026-05-04 21:20 51.92832 2.61077 25441 ft 348 kts 262°
2026-05-04 21:20 51.92567 2.57210 25029 ft 345 kts 263°
2026-05-04 21:20 51.92300 2.53359 24584 ft 343 kts 263°
2026-05-04 21:21 51.92032 2.49524 24132 ft 342 kts 263°
2026-05-04 21:21 51.91766 2.45715 23692 ft 340 kts 263°
2026-05-04 21:21 51.91500 2.41911 23194 ft 339 kts 263°
2026-05-04 21:21 51.91233 2.38127 22702 ft 337 kts 263°
2026-05-04 21:22 51.90967 2.34364 22255 ft 335 kts 263°
2026-05-04 21:22 51.90773 2.30620 21830 ft 332 kts 266°
2026-05-04 21:22 51.90679 2.26904 21524 ft 329 kts 267°
2026-05-04 21:22 51.90600 2.23217 21250 ft 329 kts 267°
2026-05-04 21:23 51.90519 2.19507 20990 ft 327 kts 267°
2026-05-04 21:23 51.90435 2.15826 20734 ft 329 kts 267°
2026-05-04 21:23 51.90349 2.12123 20486 ft 327 kts 267°
2026-05-04 21:23 51.90262 2.08459 20220 ft 325 kts 267°
2026-05-04 21:24 51.90175 2.04858 19873 ft 322 kts 266°
2026-05-04 21:24 51.90086 2.01255 19476 ft 320 kts 266°
2026-05-04 21:24 51.89997 1.97665 19066 ft 318 kts 266°
2026-05-04 21:24 51.89906 1.94087 18675 ft 317 kts 266°
2026-05-04 21:25 51.89910 1.90529 18275 ft 317 kts 276°
2026-05-04 21:25 51.90542 1.87140 17860 ft 316 kts 297°
2026-05-04 21:25 51.91836 1.84227 17569 ft 321 kts 308°
2026-05-04 21:25 51.93305 1.81490 17396 ft 321 kts 310°
2026-05-04 21:26 51.94774 1.78766 17271 ft 320 kts 309°
2026-05-04 21:26 51.96225 1.76031 17160 ft 319 kts 308°
2026-05-04 21:26 51.97653 1.73290 17059 ft 318 kts 308°
2026-05-04 21:26 51.99074 1.70532 16959 ft 318 kts 308°
2026-05-04 21:27 52.00491 1.67784 16853 ft 317 kts 308°
2026-05-04 21:27 52.01901 1.65044 16747 ft 317 kts 308°
2026-05-04 21:27 52.03313 1.62292 16643 ft 317 kts 308°
2026-05-04 21:27 52.04719 1.59555 16542 ft 314 kts 308°
2026-05-04 21:28 52.06117 1.56841 16441 ft 313 kts 308°
2026-05-04 21:28 52.07513 1.54133 16344 ft 312 kts 308°
2026-05-04 21:28 52.08905 1.51423 16242 ft 312 kts 308°
2026-05-04 21:28 52.10288 1.48721 16131 ft 311 kts 307°
2026-05-04 21:29 52.11670 1.46015 16040 ft 311 kts 308°
2026-05-04 21:29 52.13053 1.43293 15939 ft 312 kts 308°
2026-05-04 21:29 52.14439 1.40573 15841 ft 312 kts 308°
2026-05-04 21:29 52.15750 1.37773 15729 ft 310 kts 299°
2026-05-04 21:30 52.16502 1.34521 15624 ft 308 kts 280°
2026-05-04 21:30 52.16801 1.31077 15537 ft 307 kts 276°
2026-05-04 21:30 52.17036 1.27625 15429 ft 306 kts 276°
2026-05-04 21:30 52.17276 1.24187 15328 ft 306 kts 276°
2026-05-04 21:31 52.17790 1.17314 15128 ft 305 kts 276°
2026-05-04 21:31 52.18053 1.13885 15028 ft 305 kts 276°
2026-05-04 21:31 52.18318 1.10468 14928 ft 304 kts 277°
2026-05-04 21:32 52.18583 1.07049 14830 ft 304 kts 277°
2026-05-04 21:32 52.18847 1.03633 14725 ft 303 kts 277°
2026-05-04 21:32 52.19110 1.00226 14633 ft 302 kts 277°
2026-05-04 21:32 52.19371 0.96840 14540 ft 302 kts 277°
2026-05-04 21:33 52.19633 0.93434 14472 ft 301 kts 276°
2026-05-04 21:33 52.19894 0.90049 14432 ft 301 kts 277°
2026-05-04 21:33 52.20153 0.86661 14381 ft 301 kts 276°
2026-05-04 21:33 52.20411 0.83268 14328 ft 301 kts 276°
2026-05-04 21:34 52.20663 0.79931 14241 ft 301 kts 276°
2026-05-04 21:34 52.20920 0.76508 14117 ft 300 kts 276°
2026-05-04 21:34 52.21168 0.73174 14071 ft 300 kts 276°
2026-05-04 21:34 52.21421 0.69803 14107 ft 300 kts 276°
2026-05-04 21:35 52.21673 0.66425 14128 ft 300 kts 276°
2026-05-04 21:35 52.21922 0.63051 14132 ft 300 kts 276°
2026-05-04 21:35 52.22168 0.59676 14118 ft 300 kts 276°
2026-05-04 21:35 52.22416 0.56296 14112 ft 300 kts 276°
2026-05-04 21:36 52.22661 0.52917 14100 ft 300 kts 276°
2026-05-04 21:36 52.22905 0.49538 14097 ft 300 kts 276°
2026-05-04 21:36 52.23147 0.46156 14094 ft 301 kts 276°
2026-05-04 21:36 52.23390 0.42757 14107 ft 301 kts 276°
2026-05-04 21:37 52.23632 0.39375 13539 ft 303 kts 276°
2026-05-04 21:37 52.23880 0.35915 12761 ft 310 kts 276°
2026-05-04 21:37 52.24131 0.32395 12074 ft 314 kts 276°
2026-05-04 21:37 52.24379 0.28890 11711 ft 306 kts 276°
2026-05-04 21:38 52.24618 0.25509 11513 ft 294 kts 276°
2026-05-04 21:38 52.24850 0.22236 11195 ft 287 kts 276°
2026-05-04 21:38 52.25075 0.19016 10777 ft 285 kts 276°
2026-05-04 21:38 52.25276 0.15817 10353 ft 283 kts 270°
2026-05-04 21:39 52.24897 0.12689 10043 ft 283 kts 247°
2026-05-04 21:39 52.23909 0.09933 9808 ft 282 kts 234°
2026-05-04 21:39 52.22689 0.07428 9586 ft 282 kts 231°
2026-05-04 21:39 52.21442 0.04977 9356 ft 281 kts 231°
2026-05-04 21:40 52.20191 0.02537 9144 ft 280 kts 231°
2026-05-04 21:40 52.18954 0.00130 8935 ft 279 kts 231°
2026-05-04 21:40 52.17710 -0.02284 8703 ft 277 kts 231°
2026-05-04 21:40 52.16473 -0.04677 8465 ft 275 kts 231°
2026-05-04 21:41 52.15239 -0.07059 8229 ft 275 kts 231°
2026-05-04 21:41 52.14006 -0.09435 8049 ft 274 kts 231°
2026-05-04 21:41 52.12776 -0.11802 8037 ft 274 kts 231°
2026-05-04 21:41 52.11563 -0.14193 7897 ft 273 kts 235°
2026-05-04 21:42 52.10534 -0.16827 7700 ft 272 kts 240°
2026-05-04 21:42 52.09577 -0.19485 7503 ft 272 kts 240°
2026-05-04 21:42 52.08666 -0.22037 7302 ft 271 kts 241°
2026-05-04 21:42 52.07720 -0.24683 7076 ft 270 kts 241°
2026-05-04 21:43 52.06774 -0.27321 6836 ft 270 kts 241°
2026-05-04 21:43 52.05829 -0.29949 6638 ft 269 kts 241°
2026-05-04 21:43 52.05203 -0.31684 6496 ft 269 kts 241°
2026-05-04 21:43 52.03941 -0.35179 6200 ft 266 kts 240°
2026-05-04 21:44 52.03082 -0.37563 6034 ft 266 kts 240°
2026-05-04 21:44 52.02463 -0.39282 5911 ft 265 kts 240°
2026-05-04 21:44 52.01534 -0.41861 5707 ft 265 kts 240°
2026-05-04 21:44 52.00605 -0.44435 5494 ft 264 kts 240°
2026-05-04 21:45 51.99675 -0.47005 5278 ft 264 kts 240°
2026-05-04 21:45 51.98744 -0.49570 5059 ft 264 kts 240°
2026-05-04 21:45 51.97812 -0.52128 4972 ft 263 kts 240°
2026-05-04 21:45 51.96877 -0.54693 4979 ft 264 kts 240°
2026-05-04 21:46 51.95924 -0.57236 5001 ft 264 kts 236°
2026-05-04 21:46 51.94738 -0.59486 5003 ft 257 kts 227°
2026-05-04 21:46 51.93512 -0.61456 4992 ft 240 kts 226°
2026-05-04 21:46 51.92352 -0.63276 4887 ft 226 kts 226°
2026-05-04 21:47 51.91239 -0.65008 4656 ft 217 kts 226°
2026-05-04 21:47 51.90171 -0.66666 4408 ft 207 kts 225°
2026-05-04 21:47 51.89164 -0.68224 4204 ft 195 kts 225°
2026-05-04 21:47 51.88195 -0.69722 3949 ft 192 kts 225°
2026-05-04 21:48 51.87231 -0.71219 3735 ft 193 kts 226°
2026-05-04 21:48 51.86265 -0.72720 3596 ft 192 kts 225°
2026-05-04 21:48 51.85130 -0.73835 3449 ft 195 kts 195°
2026-05-04 21:48 51.83822 -0.73706 3310 ft 185 kts 157°
2026-05-04 21:49 51.82869 -0.72388 3181 ft 182 kts 118°
2026-05-04 21:49 51.82480 -0.70478 3065 ft 178 kts 101°
2026-05-04 21:49 51.82242 -0.68522 2976 ft 176 kts 89°
2026-05-04 21:49 51.82379 -0.66573 2981 ft 174 kts 76°
2026-05-04 21:50 51.82658 -0.64748 2992 ft 174 kts 73°
2026-05-04 21:50 51.82982 -0.62807 2999 ft 173 kts 72°
2026-05-04 21:50 51.83304 -0.60931 2997 ft 173 kts 72°
2026-05-04 21:50 51.83628 -0.59058 2999 ft 173 kts 72°
2026-05-04 21:51 51.83952 -0.57179 2923 ft 173 kts 72°
2026-05-04 21:51 51.84275 -0.55307 2724 ft 172 kts 71°
2026-05-04 21:51 51.84596 -0.53452 2495 ft 170 kts 72°
2026-05-04 21:51 51.84907 -0.51655 2287 ft 160 kts 72°
2026-05-04 21:52 51.85185 -0.50041 2089 ft 136 kts 72°
2026-05-04 21:52 51.85434 -0.48604 1882 ft 131 kts 72°
2026-05-04 21:52 51.85680 -0.47181 1692 ft 131 kts 72°
2026-05-04 21:52 51.85925 -0.45763 1498 ft 131 kts 73°
2026-05-04 21:53 51.86163 -0.44335 1310 ft 131 kts 72°
2026-05-04 21:53 51.86411 -0.42913 1123 ft 131 kts 72°
2026-05-04 21:53 51.86657 -0.41494 942 ft 131 kts 72°
2026-05-04 21:53 51.86900 -0.40072 771 ft 132 kts 73°
2026-05-04 21:54 51.87145 -0.38665 616 ft 131 kts 72°
2026-05-04 21:54 51.87392 -0.37274 526 ft 113 kts 72°
2026-05-04 21:54 51.87519 -0.36480 528 ft 52 kts 75°
2026-05-04 21:54 51.87599 -0.36044 521 ft 24 kts 72°
2026-05-04 21:55 51.87641 -0.35923 521 ft 10 kts 26°
2026-05-04 21:55 51.87715 -0.35938 521 ft 9 kts 343°
2026-05-04 21:55 51.87773 -0.35994 521 ft 11 kts 308°
2026-05-04 21:55 51.87776 -0.36130 524 ft 14 kts 253°
2026-05-04 21:56 51.87748 -0.36290 523 ft 16 kts 254°
2026-05-04 21:56 51.87716 -0.36467 525 ft 17 kts 254°
2026-05-04 21:56 51.87692 -0.36605 526 ft 12 kts 255°
2026-05-04 21:56 51.87669 -0.36742 528 ft 14 kts 254°
2026-05-04 21:57 51.87646 -0.36885 531 ft 9 kts 268°
2026-05-04 21:57 51.87691 -0.36959 528 ft 11 kts 342°
2026-05-04 21:57 51.87762 -0.36995 523 ft 11 kts 341°
2026-05-04 21:57 51.87836 -0.37035 518 ft 12 kts 341°
2026-05-04 21:58 51.87919 -0.37080 514 ft 13 kts 342°
2026-05-04 21:58 51.88013 -0.37129 514 ft 15 kts 342°
2026-05-04 21:58 51.88120 -0.37186 517 ft 18 kts 342°
2026-05-04 21:58 51.88207 -0.37232 522 ft 10 kts 338°
2026-05-04 21:59 51.88229 -0.37335 522 ft 12 kts 252°
2026-05-04 21:59 51.88207 -0.37442 522 ft 8 kts 253°
2026-05-04 21:59 51.88192 -0.37498 522 ft 4 kts 209°
2026-05-04 21:59 51.88165 -0.37496 522 ft 3 kts 157°
2026-05-04 22:00 51.88147 -0.37486 522 ft 3 kts 160°
2026-05-04 22:00 51.88144 -0.37484 522 ft 0 kts 160°